Total_Precipitation_Accumulation
0.10 0.18 0.50 0.59 0.56 0.52 0.56 0.58 0.59 0.52 0.50 0.55 0.57 0.59 0.60 0.58 0.58 0.56 0.52 0.55 0.60 0.61 0.66 0.72 0.74 0.73 0.63 0.53 0.46 0.41 0.37 0.37 0.38 0.40 0.43 0.48 0.49 0.47 0.44 0.39 0.35 0.42 0.56
0.11 0.18 0.42 0.50 0.53 0.54 0.59 0.60 0.59 0.49 0.46 0.50 0.55 0.59 0.58 0.57 0.57 0.57 0.58 0.61 0.64 0.66 0.69 0.69 0.65 0.61 0.59 0.50 0.44 0.39 0.36 0.32 0.28 0.26 0.27 0.30 0.42 0.52 0.49 0.45 0.44 0.54 0.57
0.09 0.16 0.32 0.46 0.50 0.53 0.58 0.57 0.57 0.48 0.43 0.45 0.54 0.61 0.60 0.57 0.56 0.59 0.61 0.64 0.68 0.71 0.71 0.66 0.62 0.59 0.51 0.46 0.44 0.38 0.37 0.31 0.23 0.18 0.17 0.22 0.39 0.56 0.52 0.51 0.50 0.56 0.58
0.07 0.13 0.23 0.39 0.50 0.55 0.57 0.56 0.54 0.48 0.47 0.48 0.54 0.62 0.64 0.60 0.56 0.58 0.61 0.63 0.69 0.69 0.70 0.66 0.62 0.62 0.52 0.45 0.42 0.39 0.38 0.33 0.22 0.15 0.10 0.18 0.41 0.67 0.67 0.64 0.60 0.60 0.60
0.09 0.13 0.23 0.41 0.53 0.59 0.61 0.60 0.58 0.55 0.55 0.57 0.59 0.64 0.66 0.67 0.63 0.61 0.55 0.57 0.65 0.65 0.65 0.67 0.63 0.62 0.56 0.48 0.43 0.42 0.44 0.39 0.24 0.12 0.08 0.14 0.38 0.75 0.78 0.71 0.64 0.61 0.58
0.10 0.14 0.25 0.44 0.57 0.61 0.63 0.65 0.60 0.60 0.62 0.62 0.65 0.71 0.72 0.71 0.69 0.65 0.58 0.54 0.53 0.56 0.61 0.65 0.66 0.66 0.62 0.52 0.49 0.52 0.54 0.47 0.24 0.09 0.09 0.14 0.37 0.76 0.82 0.72 0.65 0.60 0.59
0.11 0.16 0.27 0.46 0.61 0.66 0.68 0.71 0.69 0.68 0.69 0.68 0.69 0.77 0.82 0.77 0.75 0.69 0.62 0.54 0.48 0.47 0.50 0.58 0.60 0.61 0.62 0.56 0.55 0.58 0.63 0.48 0.21 0.15 0.14 0.16 0.37 0.84 1.01 0.85 0.72 0.64 0.63
0.13 0.20 0.32 0.52 0.64 0.74 0.79 0.81 0.78 0.79 0.82 0.81 0.82 0.82 0.87 0.86 0.77 0.70 0.65 0.58 0.52 0.50 0.51 0.53 0.56 0.59 0.61 0.60 0.58 0.61 0.61 0.41 0.20 0.18 0.19 0.23 0.46 0.96 1.15 1.10 0.90 0.70 0.64
0.19 0.24 0.34 0.48 0.63 0.80 0.89 0.90 0.86 0.85 0.89 0.88 0.87 0.87 0.89 0.90 0.90 0.85 0.77 0.67 0.61 0.59 0.57 0.53 0.50 0.50 0.51 0.56 0.57 0.54 0.48 0.35 0.20 0.25 0.24 0.33 0.47 0.94 1.14 1.19 1.07 0.87 0.72
0.27 0.31 0.40 0.52 0.61 0.72 0.82 0.91 0.89 0.85 0.90 0.92 0.93 0.93 0.95 0.94 0.94 0.94 0.83 0.72 0.66 0.64 0.58 0.52 0.50 0.45 0.41 0.41 0.41 0.39 0.32 0.27 0.19 0.26 0.39 0.39 0.47 0.97 1.18 1.21 1.11 1.01 0.89
0.39 0.41 0.47 0.62 0.69 0.74 0.78 0.79 0.90 0.95 0.97 0.97 0.96 0.93 0.93 0.90 0.85 0.81 0.75 0.73 0.73 0.71 0.64 0.59 0.56 0.49 0.41 0.33 0.30 0.28 0.23 0.18 0.20 0.31 0.36 0.39 0.59 1.04 1.22 1.21 1.14 1.06 1.03
0.39 0.44 0.51 0.65 0.72 0.78 0.79 0.87 0.99 0.98 0.98 0.96 0.89 0.91 0.87 0.82 0.80 0.75 0.77 0.79 0.77 0.76 0.75 0.71 0.66 0.57 0.44 0.32 0.32 0.32 0.20 0.15 0.16 0.18 0.20 0.28 0.62 1.08 1.25 1.21 1.20 1.18 1.17
0.41 0.46 0.54 0.66 0.78 0.85 0.85 0.88 0.97 0.96 0.98 0.98 0.97 0.95 0.94 0.92 0.90 0.88 0.85 0.87 0.84 0.78 0.78 0.77 0.73 0.60 0.53 0.44 0.40 0.35 0.25 0.21 0.17 0.14 0.13 0.20 0.39 0.69 1.03 1.17 1.23 1.27 1.29
0.52 0.56 0.60 0.73 0.85 0.90 0.95 0.94 0.92 0.95 0.95 0.92 0.95 0.96 0.96 0.94 0.89 0.88 0.85 0.82 0.81 0.81 0.80 0.79 0.77 0.68 0.60 0.51 0.45 0.36 0.29 0.25 0.21 0.18 0.15 0.17 0.25 0.38 0.63 0.89 1.08 1.22 1.34
0.58 0.64 0.69 0.81 0.88 0.93 1.01 1.07 1.03 0.97 0.94 0.89 0.88 0.91 0.91 0.90 0.85 0.80 0.77 0.75 0.73 0.75 0.75 0.71 0.67 0.62 0.55 0.52 0.47 0.41 0.36 0.31 0.28 0.25 0.21 0.20 0.20 0.25 0.39 0.62 0.88 1.12 1.31
0.61 0.67 0.78 0.88 0.98 1.02 1.03 1.05 1.05 1.04 0.98 0.95 0.89 0.83 0.83 0.85 0.85 0.82 0.77 0.76 0.72 0.70 0.72 0.72 0.69 0.63 0.54 0.48 0.43 0.41 0.40 0.37 0.34 0.31 0.27 0.27 0.25 0.26 0.33 0.47 0.68 0.99 1.25
0.67 0.78 0.93 1.01 1.09 1.15 1.15 1.12 1.10 1.10 1.08 1.01 0.94 0.90 0.83 0.79 0.80 0.84 0.83 0.78 0.71 0.67 0.67 0.69 0.73 0.75 0.67 0.57 0.50 0.44 0.41 0.38 0.35 0.32 0.31 0.31 0.31 0.30 0.32 0.41 0.51 0.73 1.07
0.82 0.91 1.02 1.15 1.19 1.19 1.25 1.25 1.23 1.17 1.12 1.08 0.99 0.98 0.92 0.85 0.83 0.86 0.88 0.84 0.78 0.73 0.69 0.66 0.66 0.69 0.69 0.65 0.60 0.56 0.49 0.44 0.37 0.32 0.29 0.29 0.34 0.35 0.35 0.37 0.44 0.57 0.85
0.81 0.88 1.02 1.18 1.25 1.21 1.31 1.35 1.37 1.31 1.22 1.15 1.07 1.01 0.96 0.90 0.85 0.88 0.91 0.88 0.85 0.83 0.79 0.74 0.69 0.63 0.61 0.60 0.57 0.55 0.51 0.49 0.48 0.45 0.38 0.31 0.29 0.34 0.38 0.40 0.43 0.47 0.63
0.86 0.95 1.01 1.20 1.27 1.33 1.38 1.47 1.44 1.41 1.32 1.23 1.12 0.99 0.96 0.93 0.89 0.87 0.88 0.89 0.90 0.87 0.83 0.78 0.74 0.67 0.60 0.57 0.58 0.57 0.51 0.46 0.44 0.42 0.41 0.37 0.32 0.31 0.38 0.44 0.45 0.42 0.45
0.84 0.93 0.97 1.16 1.21 1.34 1.44 1.42 1.38 1.29 1.25 1.22 1.14 1.05 0.97 0.97 0.96 0.91 0.90 0.90 0.90 0.88 0.80 0.74 0.73 0.74 0.71 0.67 0.70 0.67 0.59 0.50 0.47 0.45 0.43 0.40 0.35 0.32 0.34 0.43 0.50 0.46 0.40
0.71 0.81 0.86 1.05 1.22 1.31 1.38 1.35 1.29 1.27 1.22 1.20 1.13 1.13 1.11 1.05 1.04 0.98 0.90 0.91 0.91 0.88 0.83 0.75 0.71 0.72 0.71 0.71 0.75 0.79 0.71 0.63 0.53 0.43 0.41 0.39 0.35 0.34 0.36 0.38 0.47 0.52 0.49
0.65 0.70 0.80 0.99 1.16 1.29 1.38 1.49 1.49 1.52 1.49 1.41 1.28 1.16 1.11 1.11 1.07 1.05 0.95 0.89 0.92 0.93 0.88 0.79 0.72 0.70 0.69 0.63 0.63 0.83 0.87 0.66 0.47 0.39 0.38 0.38 0.37 0.35 0.35 0.37 0.42 0.48 0.53
0.60 0.67 0.76 0.98 1.18 1.26 1.32 1.40 1.47 1.49 1.50 1.41 1.30 1.22 1.13 1.09 1.08 1.02 1.00 0.96 0.90 0.88 0.85 0.81 0.75 0.71 0.71 0.70 0.65 0.63 0.68 0.67 0.66 0.49 0.35 0.34 0.36 0.38 0.38 0.37 0.39 0.45 0.50
0.63 0.67 0.74 0.89 1.08 1.24 1.32 1.31 1.37 1.41 1.40 1.43 1.46 1.39 1.31 1.23 1.15 1.09 1.03 1.02 0.97 0.89 0.83 0.82 0.82 0.80 0.79 0.77 0.71 0.63 0.59 0.53 0.55 0.65 0.47 0.34 0.36 0.36 0.38 0.41 0.42 0.46 0.50
0.72 0.75 0.77 0.83 0.97 1.17 1.30 1.29 1.28 1.30 1.33 1.36 1.43 1.44 1.40 1.31 1.21 1.09 1.03 0.99 0.97 0.91 0.82 0.79 0.81 0.84 0.84 0.79 0.72 0.67 0.67 0.66 0.57 0.62 0.58 0.41 0.39 0.37 0.39 0.44 0.48 0.50 0.52